#timestamp,LO_Frequency,Hit,StdDev 
1701957615.4,286047001.4,N
1701957635.2,286047002.5,N
1701957655.0,286047002.8,N
1701957655.9,286047002.8,N
1701957675.8,286046998.6,N
1701957695.6,286046998.5,N
1701957715.5,286047002.4,N
1701957735.3,286047001.5,N
1701957755.1,286047001.9,N
1701957775.9,286047000.6,N
1701957795.7,286047001.0,N
1701957815.5,286047000.6,N
1701957835.4,286046999.1,N
1701957855.2,286046999.3,N
1701957875.1,286046999.6,N
1701957876.0,286046999.6,N
1701957895.8,286046996.7,N
1701957915.6,286046996.5,N
1701957935.5,286046999.0,N
1701957955.3,286046998.2,N
1701957975.1,286046998.5,N
1701957995.9,286046998.7,N
1701958015.7,286046998.4,N
1701958035.6,286046999.0,N
1701958055.4,286046999.6,N
1701958075.2,286046999.3,N
1701958095.1,286047000.5,N
1701958096.0,286047000.5,N
1701958115.8,286046999.9,N
1701958135.7,286046998.1,N
1701958155.5,286047000.8,N
1701958175.3,286047000.8,N
1701958195.2,286047000.6,N
1701958215.0,286047000.7,N
1701958215.9,286047000.7,N
1701958235.8,286047000.8,N
1701958255.6,286046999.3,N
1701958275.4,286046997.0,N
1701958295.3,286046997.4,N
1701958315.1,286046998.9,N
1701958335.8,286046998.9,N
1701958355.7,286046999.3,N
1701958375.5,286046998.8,N
1701958395.4,286047001.1,N
1701958415.2,286047000.2,N
1701958435.0,286047000.9,N
1701958435.9,286047000.9,N
1701958455.8,286046998.6,N
1701958475.6,286047000.6,N
1701958495.4,286046999.7,N
1701958515.3,286047002.1,N
1701958535.1,286047002.2,N
1701958555.9,286047001.9,N
1701958575.7,286047000.6,N
1701958595.6,286047002.7,N
1701958615.4,286047000.6,N
1701958635.2,286047002.8,N
1701958655.1,286047000.6,N
1701958656.0,286047000.6,N
1701958675.8,286047000.1,N
1701958695.7,286047002.7,N
1701958715.5,286047001.9,N
1701958735.3,286047002.4,N
1701958755.2,286047001.9,N
1701958775.0,286047002.0,N
1701958775.9,286047002.0,N
1701958795.7,286047002.3,N
1701958815.6,286047000.1,N
1701958835.4,286046999.9,N
1701958855.3,286047000.3,N
1701958875.1,286047002.3,N
1701958895.8,286047002.2,N
1701958915.7,286047000.2,N
1701958935.5,286047000.3,N
1701958955.4,286047002.5,N
1701958975.2,286047000.1,N
1701958995.0,286047001.5,N
1701958995.9,286047001.5,N
1701959015.8,286047002.6,N
1701959035.6,286047000.6,N
1701959055.5,286047002.0,N
1701959075.3,286047002.0,N
1701959095.1,286047004.0,Y
1701959115.9,286047002.1,P
1701959135.7,286047002.5,P
1701959155.5,286047002.1,P
1701959175.4,286047002.5,Y
1701959195.2,286046998.6,P
1701959215.1,286046998.5,N
1701959216.0,286046998.5,N
1701959235.8,286046998.4,N
1701959255.6,286047000.1,N
1701959275.5,286046998.8,N
1701959295.3,286047000.6,N
1701959315.1,286046999.1,N
1701959335.9,286046998.9,N
1701959355.7,286046998.7,N
1701959375.6,286046998.4,N
1701959395.4,286046999.0,N
1701959415.2,286046998.7,N
1701959435.1,286046999.0,N
1701959436.0,286046999.0,N
1701959455.8,286046998.3,N
1701959475.7,286046998.8,N
1701959495.5,286046998.6,N
1701959515.3,286047000.5,N
1701959535.2,286047001.1,N
1701959555.0,286046998.4,N
1701959555.9,286046998.4,N
1701959575.7,286047000.2,N
1701959595.6,286047000.7,N
1701959615.4,286047000.3,N
1701959635.3,286046998.1,N
1701959655.1,286046999.9,N
1701959656.0,286046999.9,N
1701959675.8,286047000.3,N
1701959695.7,286047002.7,N
1701959715.5,286046998.2,N
1701959735.3,286046998.9,N
1701959755.2,286047000.3,N
1701959775.0,286047001.0,N
1701959775.9,286047001.0,N
1701959795.8,286047000.0,N
1701959815.6,286047000.5,N
1701959835.4,286047001.0,N
1701959855.3,286046998.5,N
1701959875.1,286046998.4,N
1701959895.9,286046999.0,N
1701959915.7,286046999.3,N
1701959935.5,286046998.0,N
1701959955.4,286046995.1,Y
1701959975.2,286046994.9,P
1701959995.1,286046997.7,N
1701959996.0,286046997.7,N
1701960015.8,286046996.9,N
1701960035.6,286046997.0,N
1701960055.5,286046996.8,N
1701960075.3,286046997.0,N
1701960095.2,286046998.6,N
1701960115.9,286046998.2,N
1701960135.7,286046998.4,N
1701960155.6,286047000.6,N
1701960175.4,286047001.1,N
1701960195.2,286046998.8,N
1701960215.1,286046998.9,N
1701960216.0,286046998.9,N
1701960235.8,286046999.1,N
1701960255.7,286046998.8,N
1701960275.5,286046998.4,N
1701960295.3,286047000.8,N
1701960315.2,286046998.3,N
1701960335.0,286046998.6,N
1701960335.9,286046998.6,N
1701960355.7,286046998.4,N
1701960375.6,286047000.2,N
1701960395.4,286047000.6,N
1701960415.3,286046998.6,N
1701960435.1,286046998.6,N
1701960436.0,286046998.6,N
1701960455.8,286046999.0,N
1701960475.7,286047001.1,N
1701960495.5,286047000.0,N
1701960515.3,286047000.4,N
1701960535.2,286046998.2,N
1701960555.0,286046998.1,N
1701960555.9,286046998.1,N
1701960575.8,286046998.1,N
1701960595.6,286047000.9,N
1701960615.4,286046998.3,N
1701960635.3,286046998.7,N
1701960655.1,286047001.2,N
1701960675.8,286046998.1,N
1701960695.7,286046998.6,N
1701960715.5,286046999.6,N
1701960735.4,286046998.9,N
1701960755.2,286046999.6,N
1701960775.0,286046997.8,N
1701960775.9,286046997.8,N
1701960795.8,286046997.0,N
1701960815.6,286046997.5,N
1701960835.4,286046997.7,N
1701960855.3,286046996.1,Y
1701960875.1,286046996.5,P
1701960895.9,286046998.7,N
1701960915.7,286046998.5,N
1701960935.5,286047001.1,N
1701960955.4,286046998.2,N
1701960975.2,286046998.7,N
1701960995.0,286046996.5,N
1701960996.0,286046996.5,N
1701961015.8,286046998.4,N
1701961035.6,286046998.1,N
1701961055.5,286046998.4,N
1701961075.3,286046998.8,N
1701961095.1,286047000.5,N
1701961115.9,286046998.1,N
1701961135.7,286046998.7,N
1701961155.6,286046996.6,N
1701961175.4,286046996.9,N
1701961195.2,286046999.4,N
